Date String (YYYY-MM-DD hh:mm:ss) UTC,Instrument flags,Ambient pressure (hPa),Sample flow (lpm),Bypass flow (lpm),Sample temperature (°C),Ambient temperature (°C),ASC tube jacket temperature (°C),LED temperature (°C),Box temperature (°C),Sample RH (%),Span deviation,Mass concentration (μg/m³),Mass concentration (μg/m³),Mass concentration (μg/m³)
DateTimeUTC,F1_M11,P_M11,Q1_M11,Q2_M11,T1_M11,T2_M11,T3_M11,T4_M11,T5_M11,U1_M11,ZSPAN_M11,X0_M11,X2_M11,X1_M11
2022-11-26 15:00:00,,0821.0,5.01,0.00,21.8,20.6,00.0,30.6,23.6,12.6,0000.0,0000.93,0000.52,0000.44
2022-11-26 15:01:00,,0821.0,4.99,0.00,21.8,20.6,00.0,30.6,23.6,12.6,0000.0,0000.96,0000.53,0000.44
2022-11-26 15:02:00,,0821.0,5.00,0.00,21.8,20.6,00.0,30.6,23.6,12.5,0000.0,0001.05,0000.56,0000.45
2022-11-26 15:03:00,,0821.0,4.99,0.00,21.8,20.6,00.0,30.6,23.5,12.5,0000.0,0001.20,0000.60,0000.46
2022-11-26 15:04:00,,0821.0,4.99,0.00,21.8,20.7,00.0,30.6,23.6,12.5,0000.0,0001.26,0000.61,0000.48
2022-11-26 15:05:00,,0821.0,5.00,0.00,21.8,20.7,00.0,30.7,23.7,12.6,0000.0,0001.36,0000.64,0000.49
2022-11-26 15:06:00,,0821.0,5.00,0.00,21.8,20.7,00.0,30.7,23.7,12.6,0000.0,0001.35,0000.64,0000.49
2022-11-26 15:07:00,,0821.0,5.00,0.00,21.8,20.7,00.0,30.7,23.7,12.5,0000.0,0001.34,0000.65,0000.50
2022-11-26 15:08:00,,0820.9,5.00,0.00,21.8,20.7,00.0,30.7,23.7,12.5,0000.0,0001.27,0000.66,0000.50
2022-11-26 15:09:00,,0820.9,5.01,0.00,21.9,20.7,00.0,30.7,23.7,12.5,0000.0,0001.17,0000.65,0000.49
2022-11-26 15:10:00,,0821.0,5.00,0.00,21.9,20.7,00.0,30.7,23.7,12.6,0000.0,0001.17,0000.65,0000.50
2022-11-26 15:11:00,,0821.0,5.01,0.00,21.9,20.8,00.0,30.7,23.7,12.7,0000.0,0001.22,0000.66,0000.49
2022-11-26 15:12:00,,0821.0,5.01,0.00,21.9,20.8,00.0,30.7,23.7,12.6,0000.0,0001.49,0000.66,0000.49
2022-11-26 15:13:00,,0821.0,5.00,0.00,21.9,20.8,00.0,30.7,23.7,12.5,0000.0,0002.12,0000.65,0000.50
2022-11-26 15:14:00,,0821.0,5.00,0.00,21.9,20.8,00.0,30.7,23.7,12.2,0000.0,0001.97,0000.63,0000.49
2022-11-26 15:15:00,,0821.0,4.99,0.00,21.9,20.8,00.0,30.7,23.7,12.2,0000.0,0001.90,0000.61,0000.49
2022-11-26 15:16:00,,0821.0,5.00,0.00,21.9,20.8,00.0,30.8,23.7,12.2,0000.0,0001.81,0000.59,0000.48
2022-11-26 15:17:00,,0821.0,5.01,0.00,21.9,20.8,00.0,30.8,23.7,12.2,0000.0,0001.82,0000.58,0000.47
2022-11-26 15:18:00,,0821.0,5.00,0.00,21.9,20.8,00.0,30.8,23.7,12.1,0000.0,0001.80,0000.58,0000.47
2022-11-26 15:19:00,,0821.0,5.01,0.00,22.0,20.8,00.0,30.8,23.8,12.1,0000.0,0001.76,0000.56,0000.47
2022-11-26 15:20:00,,0821.0,5.00,0.00,22.0,20.9,00.0,30.8,23.8,12.2,0000.0,0001.81,0000.58,0000.47
2022-11-26 15:21:00,,0821.1,5.00,0.00,22.0,20.9,00.0,30.8,23.8,12.1,0000.0,0001.80,0000.57,0000.47
2022-11-26 15:22:00,,0821.0,4.99,0.00,22.0,20.9,00.0,30.8,23.8,12.1,0000.0,0001.74,0000.55,0000.46
2022-11-26 15:23:00,,0821.0,4.99,0.00,22.0,20.9,00.0,30.8,23.8,12.0,0000.0,0001.47,0000.54,0000.45
2022-11-26 15:24:00,,0821.0,5.00,0.00,22.0,20.9,00.0,30.9,23.9,12.3,0000.0,0000.99,0000.57,0000.45
2022-11-26 15:25:00,,0821.0,5.01,0.00,22.0,21.0,00.0,30.9,23.9,13.1,0000.0,0001.01,0000.58,0000.45
2022-11-26 15:26:00,,0821.0,5.01,0.00,22.0,21.0,00.0,30.9,23.8,13.4,0000.0,0001.02,0000.58,0000.45
2022-11-26 15:27:00,,0821.0,5.00,0.00,22.1,21.0,00.0,30.9,23.9,13.2,0000.0,0000.99,0000.57,0000.45
2022-11-26 15:28:00,,0821.0,5.00,0.00,22.1,21.0,00.0,30.9,23.9,12.8,0000.0,0000.92,0000.55,0000.44
2022-11-26 15:29:00,,0821.0,4.99,0.00,22.1,21.0,00.0,30.9,23.9,12.6,0000.0,0000.89,0000.53,0000.44
2022-11-26 15:30:00,,0821.0,5.00,0.00,22.1,21.0,00.0,30.9,23.9,12.7,0000.0,0000.86,0000.51,0000.42
2022-11-26 15:31:00,,0821.0,4.99,0.00,22.1,21.1,00.0,30.9,23.9,13.4,0000.0,0000.79,0000.48,0000.40
2022-11-26 15:32:00,,0821.0,5.00,0.00,22.1,21.1,00.0,30.9,23.9,12.8,0000.0,0000.77,0000.46,0000.39
2022-11-26 15:33:00,,0821.0,5.00,0.00,22.1,21.1,00.0,31.0,23.9,12.6,0000.0,0000.79,0000.46,0000.39
2022-11-26 15:34:00,,0821.0,5.01,0.00,22.2,21.1,00.0,31.0,23.9,12.2,0000.0,0000.77,0000.45,0000.38
2022-11-26 15:35:00,,0821.0,5.01,0.00,22.2,21.1,00.0,31.0,24.0,12.6,0000.0,0000.63,0000.44,0000.38
2022-11-26 15:36:00,,0821.0,5.00,0.00,22.2,21.1,00.0,31.0,24.0,11.9,0000.0,0000.61,0000.43,0000.36
2022-11-26 15:37:00,,0821.0,5.00,0.00,22.2,21.2,00.0,31.0,24.0,12.0,0000.0,0000.60,0000.42,0000.35
2022-11-26 15:38:00,,0821.0,5.00,0.00,22.2,21.2,00.0,31.0,24.0,12.2,0000.0,0000.67,0000.44,0000.35
2022-11-26 15:39:00,,0821.0,5.00,0.00,22.2,21.2,00.0,31.0,24.0,12.9,0000.0,0000.68,0000.45,0000.35
2022-11-26 15:40:00,,0820.9,5.00,0.00,22.2,21.2,00.0,31.1,24.1,12.6,0000.0,0000.69,0000.46,0000.35
2022-11-26 15:41:00,,0820.9,5.00,0.00,22.3,21.2,00.0,31.1,24.1,11.9,0000.0,0000.73,0000.48,0000.35
2022-11-26 15:42:00,,0820.9,5.00,0.00,22.3,21.3,00.0,31.1,24.1,12.4,0000.0,0000.76,0000.49,0000.36
2022-11-26 15:43:00,,0820.9,5.00,0.00,22.3,21.3,00.0,31.1,24.1,13.3,0000.0,0000.75,0000.49,0000.36
2022-11-26 15:44:00,,0820.9,5.00,0.00,22.3,21.3,00.0,31.1,24.1,13.3,0000.0,0000.71,0000.48,0000.36
2022-11-26 15:45:00,,0820.9,5.00,0.00,22.3,21.3,00.0,31.1,24.2,14.1,0000.0,0000.71,0000.48,0000.36
2022-11-26 15:46:00,,0820.9,5.00,0.00,22.4,21.4,00.0,31.2,24.2,13.6,0000.0,0000.71,0000.49,0000.36
2022-11-26 15:47:00,,0820.9,5.00,0.00,22.4,21.4,00.0,31.2,24.2,14.0,0000.0,0000.68,0000.49,0000.36
2022-11-26 15:48:00,,0820.9,5.01,0.00,22.4,21.4,00.0,31.2,24.2,13.6,0000.0,0000.70,0000.50,0000.36
2022-11-26 15:49:00,,0820.9,5.00,0.00,22.4,21.4,00.0,31.2,24.2,12.5,0000.0,0000.67,0000.49,0000.36
2022-11-26 15:50:00,,0820.9,4.99,0.00,22.4,21.5,00.0,31.2,24.3,12.1,0000.0,0000.62,0000.47,0000.35
2022-11-26 15:51:00,,0820.9,5.00,0.00,22.5,21.5,00.0,31.3,24.3,14.1,0000.0,0000.61,0000.46,0000.35
2022-11-26 15:52:00,,0820.9,5.00,0.00,22.5,21.5,00.0,31.3,24.3,12.8,0000.0,0000.59,0000.44,0000.34
2022-11-26 15:53:00,,0820.9,5.00,0.00,22.5,21.6,00.0,31.3,24.4,12.5,0000.0,0000.57,0000.44,0000.34
2022-11-26 15:54:00,,0820.9,5.00,0.00,22.5,21.6,00.0,31.3,24.4,12.5,0000.0,0000.62,0000.45,0000.33
2022-11-26 15:55:00,,0820.9,4.99,0.00,22.6,21.6,00.0,31.3,24.4,12.8,0000.0,0000.71,0000.46,0000.33
2022-11-26 15:56:00,,0820.9,5.00,0.00,22.6,21.6,00.0,31.3,24.4,12.7,0000.0,0000.76,0000.46,0000.33
2022-11-26 15:57:00,,0820.9,5.00,0.00,22.6,21.7,00.0,31.4,24.5,11.9,0000.0,0000.73,0000.44,0000.33
2022-11-26 15:58:00,,0820.9,5.00,0.00,22.6,21.7,00.0,31.4,24.5,13.0,0000.0,0000.70,0000.41,0000.32
2022-11-26 15:59:00,,0820.8,5.00,0.00,22.7,21.7,00.0,31.4,24.5,12.4,0000.0,0000.71,0000.41,0000.32
